Location: Unspecified
(0.0000°N, 0.0000°E)
Time: 01:29:39
(UTC+00:00)

Vanguard 1 Rocket - Pass Details

Date: 26 November 2019
Orbit: 650 x 4226 km, 34.3° (Epoch: 10 December)

Event Time Altitude Azimuth Distance (km) Brightness Sun altitude
Rises 18:05:28 0° 225° (SW) 8,441 13.8 -4.2°
Reaches altitude 10° 18:12:27 10° 217° (SW) 7,426 13.1 -5.9°
Maximum altitude 18:35:04 39° 155° (SSE) 4,455 10.8 -11.1°
Enters shadow 18:48:58 12° 93° (E) 4,905 10.6 -14.4°
Drops below altitude 10° 18:49:34 10° 91° (E) 4,991 - -14.5°
Sets 18:53:01 0° 83° (E) 5,575 - -15.3°
